Flag for Saudi Arabia Weather past 2 weeks in Riyadh, Saudi Arabia

Now
79 °F

Sunny.


Feels Like: 78 °F
Forecast: 74 / 104 °F
Wind: No wind

Location: King Khaled International Airport

Current Time: Sep 21, 2014 at 8:10:48 AM

Latest Report: Sep 21, 2014 at 7:00 AM


Visibility: 5 mi

Pressure: 29.83 "Hg

Humidity: 18%

Dew point: 32 °F

Location of RiyadhLocation

Historic Weather in Riyadh — Graph

°F

Riyadh temperature yesterday

Maximum temperature yesterday: 102 °F (at 3:00 PM)
Minimum temperature yesterday: 72 °F (at 6:00 AM)
Average temperature yesterday: 86 °F

Past Weeks' High & Low Weather Summary

 TemperatureHumidityPressure
High109 °F (Sep 7, 1:00 PM)32% (Sep 10, 6:00 AM)30.01 "Hg (Sep 10, 6:00 AM)
Low72 °F (Sep 20, 6:00 AM)5% (Sep 7, 1:00 PM)29.71 "Hg (Sep 6, 2:00 PM)
Average93 °F14%29.83 "Hg
* Reported Sep 6 7:00 AM — Sep 21 7:00 AM, Riyadh, Weather by CustomWeather, © 2014

Note: Actual official high and low records may vary slightly from our data, if they occured in-between our weather recording intervals... More about our weather records

Advertising

Riyadh weather history for previous 24 hours

 ConditionsComfort  
Time TempWeatherWind HumidityBarometerVisibility
7:00 AM
Sep 21
79 °FSunny.No wind18%29.83 "Hg5 mi
6:00 AM72 °FSunny.No wind23%29.83 "Hg4 mi
5:00 AM73 °FClear.No wind20%29.83 "Hg10 mi
4:00 AM73 °FClear.No wind20%29.80 "Hg10 mi
3:00 AM77 °FClear.No wind15%29.80 "Hg10 mi
2:00 AM77 °FClear.No wind17%29.83 "Hg10 mi
1:00 AM81 °FClear.No wind15%29.83 "Hg10 mi
12:00 AM81 °FClear.No wind16%29.86 "Hg10 mi
11:00 PM
Sep 20
82 °FClear.No wind15%29.86 "Hg10 mi
10:00 PM84 °FClear.No wind13%29.86 "Hg10 mi
9:00 PM84 °FClear.No wind13%29.86 "Hg10 mi
4:00 PM102 °FSunny.10 mph8%29.80 "Hg10 mi
3:00 PM102 °FSunny.9 mph8%29.83 "Hg10 mi
2:00 PM100 °FSunny.2 mph8%29.83 "Hg10 mi
1:00 PM100 °FSunny.6 mph9%29.86 "Hg10 mi
12:00 PM99 °FSunny.3 mph10%29.89 "Hg10 mi
11:00 AM95 °FSunny.7 mph11%29.92 "Hg10 mi
10:00 AM93 °FSunny.3 mph13%29.95 "Hg10 mi
9:00 AM90 °FSunny.2 mph15%29.95 "Hg10 mi
8:00 AM84 °FSunny.No wind16%29.95 "Hg10 mi
Weather by CustomWeather, © 2014

See weather overviewHow to use our weather pages